sat.trackr.live / text

‹ back to catalog

STARLINK-34007

NORAD 63868 · 2025-094E

PAYLOAD ACTIVE UNKNOWN

§ Identity

Operator
Country
US
Launch date
2025-05-10
Launch site
AFWTR
Launch vehicle
Mass (kg)
RCS (m²)

Purposes: comms

External: N2YO · Heavens-Above · Gunter

§ Orbital elements

Epoch: 2026-09-20T23:02:11.191200Z

Period
94.09 min
Inclination
70.0011°
Eccentricity
0.0003198
Mean motion
15.30421186 rev/d
Perigee alt
472.4 km
Apogee alt
476.7 km
Semi-major
6,852.7 km
B*
6.3678e-4
RAAN
99.6881°
Arg perigee
270.8566°
Mean anomaly
89.2243°
Rev number
7,651

§ Raw data

STARLINK-340071 63868U 25094E   26263.95985175  .00018703  00000+0  63678-3 0  99902 63868  70.0011  99.6881 0003198 270.8566  89.2243 15.30421186 76516

JSON: /api/v1/satellites/63868 · /tle

For live sub-satellite position, see the globe view (requires WebGL).

§ Visibility from observer

Set your observer location to see the next 7 days of passes ≥ 10°. The values pass through the URL so the page stays shareable.

No JS? Fill the form by hand. The geolocation button needs JavaScript.